Location: Banksville Park
(38.5557°N, 75.1182°W)
Time: 13:54:29
(UTC+00:00)

Cosmos 1934 Rocket - Pass Details

Date: 19 September 2020
Orbit: 937 x 1000 km, 83.0° (Epoch: 25 October)

Event Time Altitude Azimuth Distance (km) Brightness Sun altitude
Rises 08:17:00 0° 354° (N) 3,606 7.3 -28.8°
Reaches altitude 10° 08:19:30 10° 357° (N) 2,657 6.5 -28.4°
Maximum altitude 08:25:34 75° 83° (E) 975 4.0 -27.3°
Drops below altitude 10° 08:31:37 10° 168° (SSE) 2,657 6.1 -26.2°
Sets 08:34:07 0° 170° (S) 3,605 6.8 -25.8°
